sat.trackr.live / text

‹ back to catalog

STARLINK-34622

NORAD 66015 · 2025-232L

PAYLOAD ACTIVE UNKNOWN

§ Identity

Operator
Country
US
Launch date
2025-10-16
Launch site
AFETR
Launch vehicle
Mass (kg)
RCS (m²)

Purposes: comms

External: N2YO · Heavens-Above · Gunter

§ Orbital elements

Epoch: 2026-05-25T04:00:03.998880Z

Period
93.89 min
Inclination
53.1597°
Eccentricity
0.0001903
Mean motion
15.33644183 rev/d
Perigee alt
463.6 km
Apogee alt
466.3 km
Semi-major
6,843.1 km
B*
1.0100e-2
RAAN
108.8232°
Arg perigee
96.2587°
Mean anomaly
222.7626°
Rev number
570

§ Raw data

STARLINK-346221 66015U 25232L   26145.16671295  .00348749  00000+0  10100-1 0  99942 66015  53.1597 108.8232 0001903  96.2587 222.7626 15.33644183  5701

JSON: /api/v1/satellites/66015 · /tle

For live sub-satellite position, see the globe view (requires WebGL).

§ Visibility from observer

Set your observer location to see the next 7 days of passes ≥ 10°. The values pass through the URL so the page stays shareable.

No JS? Fill the form by hand. The geolocation button needs JavaScript.